User: anonymous
Location: Unspecified
(0.0000°N, 0.0000°E)
Time: 11:05:19
(UTC+00:00)
Language:

PROBA 2 - Orbit

View from above orbital plane
View from above orbital plane
View from above satellite
View from above satellite

Ground track
Ground track

The orbit data is extracted from the following two-line orbital elements,

1 36037U 09059B   14237.59313824  .00000085  00000-0  31786-4 0  4946
2 36037 098.2848 069.4922 0012181 253.1231 148.1600 14.52629206255078
Epoch (UTC): 25 August 2014 14:14:07
Eccentricity: 0.0012181
inclination: 98.2848°
perigee height: 708 km
apogee height: 726 km
right ascension of ascending node: 69.4922°
argument of perigee: 253.1231°
revolutions per day: 14.52629206
mean anomaly at epoch: 148.1600°
orbit number at epoch: 25507

The dashed part of the orbit path shows where the satellite is in the earth's shadow,  

DLR